Regional Weather Roundup
Issued by NWS Green Bay, WI

Home | Current Version | Previous Version | Text Only | Print | Product List | Glossary On
Versions: 1 2 3 4 5 6 7 8 9 10 11 12 13 14 15 16 17 18 19 20 21 22 23 24 25 26 27 28 29 30 31 32 33 34 35 36 37 38 39 40 41 42 43 44 45 46 47 48 49 50
000
ASUS43 KGRB 052211
RWRGRB

NORTH-CENTRAL AND NORTHEAST WISCONSIN REGIONAL WEATHER ROUNDUP
NATIONAL WEATHER SERVICE GREEN BAY WI
400 PM CST FRI FEB 05 2016

WIZ005-009-010>012-018-019-052300-
NORTH CENTRAL WISCONSIN

CITY           SKY/WX    TMP DP  RH WIND       PRES   REMARKS
IRONWOOD       CLOUDY    27  12  54 S9        30.14F
MANITOWISH WTR MOCLDY    24   8  51 SW10      30.17F
ARBOR VITAE    PTCLDY    27   8  45 SW7       30.18F
EAGLE RIVER    CLEAR     23   6  48 SW6       30.18S
LAND O LAKES   CLOUDY    27   7  43 SW10      30.18S
RHINELANDER    PTCLDY    26   8  46 SW9       30.20F
PHILLIPS       CLOUDY    25   9  52 S7        30.19F
ANTIGO         CLEAR     22  10  60 SW8       30.22S
TOMAHAWK       SUNNY     26   5  40 SW3       30.22R
MERRILL        CLOUDY    24  11  56 SW3       30.25S
$$

WIZ013-073-052300-
NORTHEAST WISCONSIN

CITY           SKY/WX    TMP DP  RH WIND       PRES   REMARKS
IRON MOUNTAIN  PTCLDY    26   8  46 SW5       30.20F
MARINETTE      CLEAR     27  12  54 W5        30.28S
OCONTO         CLEAR     27  15  60 W3        30.29S
$$

WIZ017-030-035>037-045-052300-
CENTRAL WISCONSIN

CITY           SKY/WX    TMP DP  RH WIND       PRES   REMARKS
MEDFORD        CLOUDY    21  13  71 S6        30.22F
WAUSAU         CLOUDY    26  10  50 SW7       30.24S
MOSINEE        SUNNY     25  12  58 SW6       30.26F
MARSHFIELD     CLOUDY    25  13  60 CALM      30.24F
WISC RAPIDS    CLOUDY    25  15  66 S8        30.29F
STEVENS POINT  CLOUDY    24  15  67 S7        30.27F
WAUPACA        CLOUDY    29  15  55 SW5       30.30S
SHAWANO        CLEAR     31  11  44 SW6       30.28F
CLINTONVILLE   CLEAR     27  14  59 SW8       30.28F
WAUTOMA        CLOUDY    29  16  58 SW7       30.31S
$$

WIZ038-039-048-051-052300-
FOX VALLEY

CITY           SKY/WX    TMP DP  RH WIND       PRES   REMARKS
NWS GREEN BAY  CLEAR     25  14  63 S6        30.29F
APPLETON       PTSUNNY   27  12  54 SW6       30.27S
OSHKOSH        CLOUDY    25  16  68 SW6       30.30F
FOND DU LAC    CLOUDY    26  15  63 SW8       30.32S
$$

WIZ022-050-052-052300-
EAST CENTRAL WISCONSIN

CITY           SKY/WX    TMP DP  RH WIND       PRES   REMARKS
EPHRAIM        FAIR      23  13  66 SW7       30.28R
STURGEON BAY   CLEAR     23  10  58 SW7       30.31S
MANITOWOC      CLEAR     25  16  68 W7        30.32S
SHEBOYGAN      CLOUDY    25  14  63 W8        30.31S
$$

LMZ563-521-522-541>543-052300-
LAKESHORE

STATION/POSITION TIME  TEMP    WIND        PRES    VSBY  WAVE
                       AIR SEA DIR/SP/G                  HT/PER
                 (UTC) (F)     (DEG/KT/KT) (MB)    (MI)  (FT/S)
SHEBOYGAN LKSHOR 2200   26     260/  7/  9 1027.9R
KEWAUNEE LKSHORE 2100   25     250/  6/  9 1025.2F
ALGOMA MARINA    2111          270/ 10/ 13   N/A
NORTHPORT PIER   2100   26     270/  7/ 10 1025.4
CHAMBERS ISLAND  2100   26     180/  4/  8 1025.7S
MENOMINEE LKSHOR 2100   27     260/  4     1024.3S
$$



USA.gov is the U.S. government's official web portal to all federal, state and local government web resources and services.